Hondo, TX

7:55 AM CST on December 15, 2019 (GMT -0600)
Hondo Municipal

Weather History for KHDO - October, 2019

Change the Weather History Date:

Tuesday, October 15, 2019

  Actual Average Record
Temperature  
Mean Temperature 82 °F -  
Max Temperature 93 °F 80 °F 95 °F (2016)
Min Temperature 71 °F 56 °F 42 °F (2014)
Cooling Degree Days 17    
Growing Degree Days 32 (Base 50)    
Moisture  
Dew Point 69 °F    
Average Humidity 72    
Maximum Humidity 94    
Minimum Humidity 38    
Precipitation  
Precipitation 0.15 in - - ()
Sea Level Pressure  
Sea Level Pressure 29.89 in    
Wind  
Wind Speed 8 mph (SSE)    
Max Wind Speed 20 mph    
Max Gust Speed 29 mph    
Visibility 10 miles    
Events Rain , Thunderstorm    
Averages and records for this station are not official NWS values.
T = Trace of Precipitation, MM = Missing Value Source: NWS Daily Summary

Daily Weather History Graph

Daily Weather History Graph

Search for Another Location

Airport or City:

Astronomy

Oct. 15, 2019 Rise Set
Actual Time 7:37 AM CDT 7:06 PM CDT
Civil Twilight 7:14 AM CDT 7:30 PM CDT
Nautical Twilight 6:46 AM CDT 7:58 PM CDT
Astronomical Twilight 6:18 AM CDT 8:25 PM CDT
Moon 8:33 PM CDT 9:06 AM CDT
Length of Visible Light 12h 16m
Length of Day
11h 28m
Full, 97% of the Moon is Illuminated
Oct 15
Full
Oct 21
Last Quarter
Oct 27
New
Nov 4
First Quarter
Nov 12
Full

Hourly Weather History & Observations

Time (CDT) Temp. Heat Index Dew Point Humidity Pressure Visibility Wind Dir Wind Speed Gust Speed Precip Events Conditions
12:51 AM 73.9 °F - 64.0 °F 71% 29.90 in 10.0 mi South 5.8 mph - N/A   Clear
1:51 AM 75.0 °F - 66.9 °F 76% 29.89 in 10.0 mi SSE 4.6 mph - N/A   Clear
2:51 AM 75.0 °F - 68.0 °F 79% 29.88 in 10.0 mi SSE 8.1 mph - N/A   Clear
3:51 AM 75.9 °F - 70.0 °F 82% 29.88 in 10.0 mi South 10.4 mph - N/A   Clear
4:51 AM 75.0 °F - 71.1 °F 87% 29.87 in 10.0 mi South 9.2 mph - N/A   Clear
5:51 AM 75.0 °F - 71.1 °F 87% 29.88 in 10.0 mi South 10.4 mph - N/A   Overcast
6:51 AM 75.0 °F - 71.1 °F 87% 29.89 in 10.0 mi South 11.5 mph - N/A   Overcast
7:09 AM 75.0 °F - 71.1 °F 87% 29.94 in 10.0 mi South 9.2 mph - N/A   Overcast
7:51 AM 75.0 °F - 72.0 °F 90% 29.89 in 10.0 mi South 8.1 mph - N/A   Overcast
8:51 AM 75.9 °F - 72.0 °F 87% 29.91 in 10.0 mi South 8.1 mph - N/A   Overcast
9:09 AM 77.0 °F - 72.0 °F 84% 29.95 in 10.0 mi South 9.2 mph - N/A   Overcast
9:51 AM 78.1 °F - 71.1 °F 79% 29.92 in 10.0 mi SSW 9.2 mph - N/A   Overcast
10:39 AM 81.0 °F 84.9 °F 71.1 °F 72% 29.96 in 10.0 mi SSW 6.9 mph - N/A   Overcast
10:51 AM 81.0 °F 84.9 °F 71.1 °F 72% 29.91 in 10.0 mi South 8.1 mph - N/A   Overcast
11:51 AM 84.9 °F 89.4 °F 70.0 °F 61% 29.91 in 10.0 mi Calm Calm - N/A   Scattered Clouds
12:51 PM 89.1 °F 94.1 °F 70.0 °F 53% 29.89 in 10.0 mi Variable 4.6 mph - N/A   Mostly Cloudy
1:51 PM 90.0 °F 93.6 °F 68.0 °F 48% 29.86 in 10.0 mi Calm Calm - N/A   Partly Cloudy
2:51 PM 91.9 °F 95.4 °F 66.9 °F 44% 29.82 in 10.0 mi North - - N/A   Clear
3:51 PM 93.0 °F 95.0 °F 64.9 °F 39% 29.81 in 10.0 mi West 3.5 mph - N/A   Partly Cloudy
4:51 PM 93.9 °F 96.1 °F 64.9 °F 38% 29.79 in 10.0 mi South 9.2 mph - N/A   Clear
6:51 PM 86.0 °F 86.8 °F 63.0 °F 46% 29.80 in 10.0 mi NE 12.7 mph - N/A   Clear
7:51 PM 82.9 °F 84.6 °F 64.9 °F 54% 29.82 in 10.0 mi NE 10.4 mph - N/A   Scattered Clouds
8:15 PM 82.9 °F 85.0 °F 66.0 °F 56% 29.89 in 10.0 mi North 12.7 mph - N/A Thunderstorm Overcast
8:30 PM 79.0 °F - 66.0 °F 64% 29.90 in 10.0 mi NNW 15.0 mph 28.8 mph N/A Thunderstorm Mostly Cloudy
8:51 PM 78.1 °F - 64.0 °F 62% 29.86 in 10.0 mi NNW 19.6 mph - N/A Thunderstorm Thunderstorm
9:12 PM 73.0 °F - - N/A% 29.93 in - NW 5.8 mph - 0.03 in Thunderstorm Thunderstorm
9:43 PM 73.0 °F - 70.0 °F 90% 29.92 in 10.0 mi ESE 6.9 mph - 0.06 in Thunderstorm Scattered Clouds
9:51 PM 73.0 °F - 70.0 °F 90% 29.88 in 10.0 mi SE 11.5 mph - 0.06 in   Partly Cloudy
10:51 PM 72.0 °F - 70.0 °F 93% 29.90 in 10.0 mi NE 9.2 mph - N/A   Overcast
11:48 PM 71.6 °F - 69.8 °F 94% 29.95 in 3.0 mi South 4.6 mph - 0.08 in Rain , Thunderstorm Heavy Thunderstorms and Rain
11:51 PM 72.0 °F - 69.1 °F 91% 29.90 in 4.0 mi ESE 6.9 mph - 0.09 in Rain , Thunderstorm Light Thunderstorms and Rain